This is the latest recevied weather packets stored in our database for station/object DL6MAA-11. If no packets are shown the sender has not sent any weather packets the latest 10 day(s).
| Time | Temp. | Humidity | Pressure | Rain* | Wind** | Luminosity | Snow |
|---|---|---|---|---|---|---|---|
| 1777888024 | 21.11° C | 45% | 1011.6 hPa | 0 mm | - | 84 W/m² | - |
| 1777887727 | 21.11° C | 46% | 1011.9 hPa | 0 mm | - | 72 W/m² | - |
| 1777887419 | 21.11° C | 44% | 1011.9 hPa | 0 mm | - | 70 W/m² | - |
| 1777887123 | 20.56° C | 46% | 1011.9 hPa | 0 mm | - | 70 W/m² | - |
| 1777886817 | 20.56° C | 46% | 1012 hPa | 0 mm | - | 69 W/m² | - |
| 1777886525 | 20.56° C | 45% | 1012 hPa | 0 mm | - | 63 W/m² | - |
| 1777886230 | 20.56° C | 47% | 1012 hPa | 0 mm | - | 69 W/m² | - |
| 1777885917 | 20.56° C | 47% | 1012.1 hPa | 0 mm | - | 74 W/m² | - |
| 1777885628 | 20° C | 46% | 1012.1 hPa | 0 mm | - | 88 W/m² | - |
| 1777885330 | 20° C | 48% | 1012.1 hPa | 0 mm | - | 88 W/m² | - |
| 1777885013 | 20° C | 46% | 1012.3 hPa | 0 mm | - | 76 W/m² | - |
| 1777884734 | 20° C | 45% | 1012.3 hPa | 0 mm | - | 74 W/m² | - |
| 1777884421 | 20° C | 48% | 1012.3 hPa | 0 mm | - | 77 W/m² | - |
| 1777884125 | 20° C | 46% | 1012.3 hPa | 0 mm | - | 111 W/m² | - |
| 1777883834 | 20° C | 48% | 1012.3 hPa | 0 mm | - | 206 W/m² | - |
| 1777883534 | 19.44° C | 48% | 1012.3 hPa | 0 mm | - | 343 W/m² | - |
| 1777883233 | 19.44° C | 46% | 1012.7 hPa | 0 mm | - | 376 W/m² | - |
| 1777882921 | 18.89° C | 50% | 1012.7 hPa | 0 mm | - | 385 W/m² | - |
| 1777882623 | 18.89° C | 49% | 1012.7 hPa | 0 mm | - | 417 W/m² | - |
| 1777882325 | 18.33° C | 48% | 1012.6 hPa | 0 mm | - | 397 W/m² | - |
| 1777882027 | 18.33° C | 50% | 1012.6 hPa | 0 mm | - | 408 W/m² | - |
| 1777881731 | 17.78° C | 47% | 1012.6 hPa | 0 mm | - | 392 W/m² | - |
| 1777881430 | 17.78° C | 47% | 1012.8 hPa | 0 mm | - | 396 W/m² | - |
| 1777881129 | 17.22° C | 51% | 1012.8 hPa | 0 mm | - | 353 W/m² | - |
| 1777880818 | 17.22° C | 52% | 1012.8 hPa | 0 mm | - | 223 W/m² | - |
* Rain since midnight (hover to see other rain measurements)
** Current wind speed in m/s (hover to see current wind gust speed)